Home   Weather   Alta   Past weeks

Flag for Norway Past Weather in Alta, Norway — Yesterday and Last 2 Weeks

Now
54 °F

Cool.


Feels Like: 52 °F
Forecast: 46 / 49 °F
Wind: 7 mph from Southeast

Location: Alta Lufthavn

Current Time: Sep 29, 2016 at 3:41:47 AM

Latest Report: Sep 29, 2016 at 2:00 AM


Visibility: N/A

Pressure: 29.29 "Hg

Humidity: 72%

Dew Point: 45 °F

Location of AltaLocation

Past Weather in Alta — Graph

°F

Alta Temperature Yesterday

Maximum temperature yesterday: 57 °F (at 2:00 PM)
Minimum temperature yesterday: 52 °F (at 2:00 AM)
Average temperature yesterday: 54 °F

High & Low Weather Summary for the Past Weeks

 TemperatureHumidityPressure
High62 °F (Sep 26, 6:00 PM)96% (Sep 15, 1:00 AM)30.30 "Hg (Sep 15, 1:00 AM)
Low39 °F (Sep 24, 6:00 AM)50% (Sep 17, 3:00 PM)29.29 "Hg (Sep 28, 11:00 PM)
Average51 °F79%30.05 "Hg
* Reported Sep 14 2:00 AM — Sep 29 2:00 AM, Alta, Weather by CustomWeather, © 2016

Note: Actual official high and low records may vary slightly from our data, if they occured in-between our weather recording intervals... More about our weather records

Advertising

Alta Weather History for the Previous 24 Hours

Scroll right to see more
 ConditionsComfort  
Time TempWeatherWind HumidityBarometerVisibility
2:00 AM
Thu, Sep 29
54 °FCool.7 mph72%29.29 "HgN/A
1:00 AM54 °FCool.3 mph73%29.29 "HgN/A
12:00 AM53 °FCool.6 mph75%29.29 "HgN/A
11:00 PM
Wed, Sep 28
54 °FCool.8 mph74%29.29 "HgN/A
10:00 PM54 °FCool.9 mph75%29.32 "HgN/A
9:00 PM53 °FCool.8 mph76%29.35 "HgN/A
8:00 PM53 °FCool.7 mph77%29.35 "HgN/A
7:00 PM54 °FCool.6 mph75%29.38 "HgN/A
6:00 PM54 °FCool.6 mph72%29.41 "HgN/A
5:00 PM55 °FCool.8 mph71%29.44 "HgN/A
4:00 PM55 °FCool.7 mph75%29.44 "HgN/A
3:00 PM57 °FCool.2 mph67%29.44 "HgN/A
2:00 PM57 °FCool.5 mph64%29.47 "HgN/A
1:00 PM55 °FCool.6 mph69%29.47 "HgN/A
12:00 PM56 °FCool.7 mph68%29.50 "HgN/A
11:00 AM56 °FCool.9 mph67%29.53 "HgN/A
10:00 AM55 °FCool.3 mph69%29.55 "HgN/A
9:00 AM54 °FCool.5 mph70%29.58 "HgN/A
8:00 AM53 °FCool.6 mph73%29.60 "HgN/A
7:00 AM52 °FCool.6 mph73%29.63 "HgN/A
6:00 AM52 °FCool.6 mph73%29.66 "HgN/A
5:00 AM52 °FCool.8 mph73%29.68 "HgN/A
4:00 AM52 °FCool.8 mph71%29.70 "HgN/A
3:00 AM52 °FCool.6 mph73%29.72 "HgN/A
Weather by CustomWeather, © 2016

See weather overviewHow to use our weather pages